Weather History for Westfield, MA

Change the Weather History Date:

Thursday, October 18, 2012

  Actual Average Record
Temperature  
Mean Temperature 50 °F -  
Max Temperature 66 °F 58 °F 78 °F (1998)
Min Temperature 33 °F 36 °F 27 °F (2001)
Degree Days  
Heating Degree Days 16    
Moisture  
Dew Point 39 °F    
Average Humidity 79    
Maximum Humidity 93    
Minimum Humidity 46    
Precipitation  
Precipitation 0.00 in - - ()
Sea Level Pressure  
Sea Level Pressure 30.06 in    
Wind  
Wind Speed 1 mph (South)    
Max Wind Speed 12 mph    
Max Gust Speed 16 mph    
Visibility 7 miles    
Events Fog    
Averages and records for this station are not official NWS values.
T = Trace of Precipitation, MM = Missing Value Source: NWS Daily Summary

Daily Weather History Graph

Daily Weather History Graph

Search for Another Location

Airport:

Trip Planner

Search our weather history database for the weather conditions in past years. The results will help you decide how hot, cold, wet, or windy it might be!

Date:

Astronomy

Oct. 18, 2012 Rise Set
Actual Time 7:07 AM EDT 6:03 PM EDT
Civil Twilight 6:39 AM EDT 6:31 PM EDT
Nautical Twilight 6:06 AM EDT 7:04 PM EDT
Astronomical Twilight 5:34 AM EDT 7:36 PM EDT
Moon 10:50 AM EDT (10/18) 8:31 PM EDT (10/18)
Length of Visible Light 11h 52m
Length of Day
10h 56m
Waxing Crescent, 14% of the Moon is Illuminated
Oct 18
Waxing Crescent
Oct 21
First Quarter
Oct 29
Full
Nov 6
Last Quarter
Nov 13
New

Hourly Weather History & Observations

Time (EDT) Temp. Windchill Dew Point Humidity Pressure Visibility Wind Dir Wind Speed Gust Speed Precip Events Conditions
12:53 AM 41.0 °F - 37.9 °F 89% 30.01 in 8.0 mi Calm Calm - N/A   Clear
1:53 AM 39.9 °F - 37.0 °F 89% 30.03 in 7.0 mi Calm Calm - N/A   Clear
2:53 AM 37.9 °F - 36.0 °F 93% 30.03 in 10.0 mi Calm Calm - N/A   Clear
3:53 AM 37.0 °F - 35.1 °F 93% 30.02 in 5.0 mi Calm Calm - N/A   Clear
4:53 AM 36.0 °F 33.3 °F 34.0 °F 93% 30.03 in 10.0 mi North 3.5 mph - N/A   Clear
5:53 AM 35.1 °F - 33.1 °F 92% 30.05 in 8.0 mi Calm Calm - N/A   Clear
6:02 AM 35.6 °F - 33.8 °F 93% 30.05 in 3.0 mi Calm Calm - N/A   Partly Cloudy
6:05 AM 35.6 °F 32.8 °F 33.8 °F 93% 30.05 in 1.8 mi NW 3.5 mph - N/A   Scattered Clouds
6:13 AM 35.6 °F 32.8 °F 32.0 °F 87% 30.05 in 4.0 mi NW 3.5 mph - N/A   Scattered Clouds
6:44 AM 35.6 °F - 32.0 °F 87% 30.05 in 2.5 mi Calm Calm - N/A   Scattered Clouds
6:53 AM 34.0 °F - 32.0 °F 92% 30.06 in 1.0 mi Calm Calm - N/A   Mist
6:58 AM 35.6 °F - 33.8 °F 93% 30.05 in 2.0 mi Calm Calm - N/A   Mostly Cloudy
7:22 AM 33.8 °F - 32.0 °F 93% 30.05 in 4.0 mi Calm Calm - N/A   Scattered Clouds
7:28 AM 33.8 °F - 32.0 °F 93% 30.05 in 5.0 mi Calm Calm - N/A   Mostly Cloudy
7:31 AM 35.6 °F - 32.0 °F 87% 30.05 in 1.5 mi Calm Calm - N/A   Mostly Cloudy
7:33 AM 35.6 °F - 32.0 °F 87% 30.05 in 0.5 mi Calm Calm - N/A Fog Fog
7:37 AM 35.6 °F - 33.8 °F 93% 30.05 in 0.2 mi Calm Calm - N/A Fog Fog
7:53 AM 36.0 °F - 34.0 °F 93% 30.08 in 3.0 mi Calm Calm - N/A   Mist
8:00 AM 37.4 °F - 35.6 °F 93% 30.07 in 0.2 mi Calm Calm - N/A Fog Fog
8:05 AM 37.4 °F - 35.6 °F 93% 30.07 in 1.0 mi Calm Calm - N/A   Mist
8:13 AM 37.4 °F - 35.6 °F 93% 30.07 in 10.0 mi Calm Calm - N/A   Clear
8:53 AM 43.0 °F - 39.0 °F 86% 30.10 in 10.0 mi Calm Calm - N/A   Clear
9:53 AM 48.0 °F - 41.0 °F 77% 30.10 in 10.0 mi Calm Calm - N/A   Clear
10:50 AM 53.6 °F - 42.8 °F 67% 30.08 in 10.0 mi Calm Calm - N/A   Mostly Cloudy
10:53 AM 53.1 °F - 43.0 °F 69% 30.09 in 10.0 mi Calm Calm - N/A   Mostly Cloudy
11:20 AM 55.4 °F - 44.6 °F 67% 30.08 in 10.0 mi Calm Calm - N/A   Mostly Cloudy
11:53 AM 57.9 °F - 45.0 °F 62% 30.09 in 10.0 mi SSW 5.8 mph - N/A   Clear
12:53 PM 60.1 °F - 45.0 °F 57% 30.07 in 10.0 mi Variable 6.9 mph 16.1 mph N/A   Scattered Clouds
1:53 PM 64.0 °F - 45.0 °F 50% 30.04 in 10.0 mi South 11.5 mph - N/A   Partly Cloudy
2:53 PM 64.0 °F - 45.0 °F 50% 30.04 in 10.0 mi South 6.9 mph - N/A   Clear
3:53 PM 66.0 °F - 45.0 °F 47% 30.02 in 10.0 mi Variable 6.9 mph - N/A   Clear
4:53 PM 64.0 °F - 43.0 °F 46% 30.01 in 10.0 mi SSE 9.2 mph - N/A   Clear
5:53 PM 60.1 °F - 44.1 °F 55% 30.02 in 10.0 mi South 8.1 mph - N/A   Clear
6:53 PM 55.9 °F - 45.0 °F 67% 30.05 in 10.0 mi South 5.8 mph - N/A   Clear
7:53 PM 55.9 °F - 46.0 °F 69% 30.07 in 10.0 mi South 6.9 mph - N/A   Clear
8:53 PM 54.0 °F - 46.0 °F 75% 30.09 in 10.0 mi Calm Calm - N/A   Scattered Clouds
9:33 PM 55.4 °F - 46.4 °F 72% 30.07 in 10.0 mi Calm Calm - N/A   Overcast
9:53 PM 54.0 °F - 46.9 °F 77% 30.08 in 10.0 mi Calm Calm - N/A   Overcast
10:22 PM 53.6 °F - 46.4 °F 77% 30.07 in 10.0 mi Calm Calm - N/A   Overcast
10:53 PM 55.0 °F - 46.9 °F 74% 30.06 in 10.0 mi NE 3.5 mph - N/A   Overcast
11:15 PM 55.4 °F - 48.2 °F 77% 30.05 in 10.0 mi Calm Calm - N/A   Overcast
11:53 PM 55.9 °F - 48.9 °F 77% 30.05 in 10.0 mi Calm Calm - N/A   Overcast